• In Moldova, Republic
  • List of Countries
  • For 7 days
  • Water Temperature
  • Satellite Maps
  • Weather Map
  • Weather Widgets
  • user-avatar
    Login

    Hourly Weather Barra

    Today, 23 January, Monday

    Time Temperature Precipitation Wind Pressure Humidity
    00:00 +26°C° 0 mm 3 mps 746 mmHg 90%
    01:00 +26°C° 0 mm 3 mps 746 mmHg 91%
    02:00 +26°C° 0 mm 3 mps 746 mmHg 91%
    03:00 +26°C° 0 mm 3 mps 746 mmHg 92%
    04:00 +27°C° 0 mm 2 mps 746 mmHg 92%
    05:00 +27°C° 0 mm 2 mps 746 mmHg 91%
    06:00 +27°C° 0 mm 3 mps 746 mmHg 90%
    07:00 +28°C° 0 mm 3 mps 747 mmHg 89%
    08:00 +29°C° 0.1 mm 3 mps 747 mmHg 82%
    09:00 +30°C° 0.1 mm 3 mps 747 mmHg 76%
    10:00 +31°C° 0 mm 3 mps 747 mmHg 64%
    11:00 +33°C° 0 mm 3 mps 747 mmHg 59%
    12:00 +34°C° 0 mm 3 mps 747 mmHg 55%
    13:00 +35°C° 0 mm 3 mps 746 mmHg 51%
    14:00 +35°C° 0 mm 3 mps 746 mmHg 52%
    15:00 +34°C° 0 mm 3 mps 746 mmHg 54%
    16:00 +34°C° 0 mm 3 mps 745 mmHg 56%
    17:00 +31°C° 0 mm 3 mps 746 mmHg 64%
    18:00 +29°C° 0 mm 3 mps 746 mmHg 72%
    19:00 +27°C° 0 mm 2 mps 746 mmHg 80%
    20:00 +26°C° 0 mm 2 mps 747 mmHg 85%
    21:00 +26°C° 0 mm 2 mps 747 mmHg 90%
    22:00 +25°C° 0 mm 2 mps 748 mmHg 95%
    23:00 +25°C° 0 mm 2 mps 747 mmHg 95%

    Tomorrow, 24 January, Tuesday

    Time Temperature Precipitation Wind Pressure Humidity
    00:00 +25°C° 0 mm 2 mps 747 mmHg 95%
    01:00 +25°C° 0 mm 2 mps 747 mmHg 95%
    02:00 +25°C° 0 mm 2 mps 747 mmHg 95%
    03:00 +25°C° 0 mm 2 mps 747 mmHg 95%
    04:00 +25°C° 0 mm 2 mps 746 mmHg 95%
    05:00 +26°C° 0.1 mm 2 mps 747 mmHg 93%
    06:00 +26°C° 0.1 mm 2 mps 747 mmHg 91%
    07:00 +27°C° 0.1 mm 2 mps 747 mmHg 89%
    08:00 +29°C° 0 mm 2 mps 747 mmHg 80%
    09:00 +31°C° 0 mm 3 mps 747 mmHg 71%
    10:00 +33°C° 0 mm 3 mps 747 mmHg 62%
    11:00 +34°C° 0.1 mm 3 mps 747 mmHg 59%
    12:00 +35°C° 0.1 mm 3 mps 747 mmHg 56%
    13:00 +35°C° 0.1 mm 3 mps 746 mmHg 53%
    14:00 +35°C° 0.1 mm 3 mps 746 mmHg 56%
    15:00 +34°C° 0.1 mm 3 mps 746 mmHg 58%
    16:00 +33°C° 0.1 mm 3 mps 745 mmHg 60%
    17:00 +31°C° 0.1 mm 3 mps 746 mmHg 67%
    18:00 +29°C° 0.1 mm 2 mps 746 mmHg 74%
    19:00 +28°C° 0.1 mm 2 mps 747 mmHg 81%
    20:00 +27°C° 0 mm 2 mps 747 mmHg 85%
    21:00 +26°C° 0 mm 2 mps 748 mmHg 90%
    22:00 +25°C° 0 mm 2 mps 748 mmHg 94%
    23:00 +25°C° 0 mm 2 mps 748 mmHg 93%

    Day after tomorrow, 25 January, Wednesday

    Time Temperature Precipitation Wind Pressure Humidity
    00:00 +25°C° 0 mm 2 mps 748 mmHg 93%
    01:00 +25°C° 0 mm 2 mps 747 mmHg 93%
    02:00 +25°C° 0.2 mm 2 mps 747 mmHg 93%
    03:00 +26°C° 0.2 mm 3 mps 747 mmHg 93%
    04:00 +26°C° 0.2 mm 3 mps 747 mmHg 93%
    05:00 +26°C° 0.3 mm 3 mps 747 mmHg 92%
    06:00 +27°C° 0.3 mm 3 mps 747 mmHg 90%
    07:00 +27°C° 0.3 mm 3 mps 748 mmHg 89%
    08:00 +28°C° 0.7 mm 3 mps 748 mmHg 83%
    09:00 +30°C° 0.7 mm 4 mps 748 mmHg 77%
    10:00 +32°C° 0.7 mm 4 mps 748 mmHg 71%
    11:00 +32°C° 0.8 mm 4 mps 747 mmHg 68%
    12:00 +33°C° 0.8 mm 4 mps 747 mmHg 65%
    13:00 +34°C° 0.8 mm 4 mps 746 mmHg 62%
    14:00 +34°C° 0.3 mm 4 mps 746 mmHg 62%
    15:00 +33°C° 0.3 mm 4 mps 746 mmHg 63%
    16:00 +33°C° 0.3 mm 4 mps 745 mmHg 64%
    17:00 +32°C° 0 mm 4 mps 745 mmHg 70%
    18:00 +29°C° 0 mm 3 mps 746 mmHg 76%
    19:00 +28°C° 0 mm 3 mps 746 mmHg 82%
    20:00 +27°C° 0.4 mm 3 mps 747 mmHg 85%
    21:00 +26°C° 0.4 mm 2 mps 747 mmHg 89%
    22:00 +26°C° 0.4 mm 2 mps 748 mmHg 92%
    23:00 +25°C° 0.5 mm 2 mps 747 mmHg 93%

    26 January, Thursday

    Time Temperature Precipitation Wind Pressure Humidity
    00:00 +25°C° 0.5 mm 2 mps 747 mmHg 94%
    01:00 +25°C° 0.5 mm 2 mps 747 mmHg 94%
    02:00 +25°C° 0.6 mm 2 mps 746 mmHg 94%
    03:00 +25°C° 0.6 mm 2 mps 746 mmHg 94%
    04:00 +25°C° 0.6 mm 2 mps 746 mmHg 93%
    05:00 +26°C° 0.1 mm 2 mps 746 mmHg 92%
    06:00 +26°C° 0.1 mm 2 mps 747 mmHg 90%
    07:00 +27°C° 0.1 mm 2 mps 747 mmHg 88%
    08:00 +29°C° 0.1 mm 3 mps 747 mmHg 80%
    09:00 +30°C° 0.1 mm 3 mps 747 mmHg 72%
    10:00 +33°C° 0.1 mm 4 mps 747 mmHg 65%
    11:00 +34°C° 0.1 mm 4 mps 747 mmHg 61%
    12:00 +34°C° 0.1 mm 4 mps 746 mmHg 57%
    13:00 +35°C° 0.1 mm 4 mps 746 mmHg 54%
    14:00 +35°C° 0.2 mm 4 mps 746 mmHg 56%
    15:00 +34°C° 0.2 mm 4 mps 745 mmHg 57%
    16:00 +34°C° 0.2 mm 4 mps 745 mmHg 59%
    17:00 +32°C° 0.4 mm 4 mps 745 mmHg 67%
    18:00 +30°C° 0.4 mm 3 mps 746 mmHg 74%
    19:00 +28°C° 0.4 mm 3 mps 746 mmHg 82%
    20:00 +27°C° 0.8 mm 3 mps 747 mmHg 86%
    21:00 +26°C° 0.8 mm 2 mps 747 mmHg 90%
    22:00 +26°C° 0.8 mm 2 mps 747 mmHg 94%
    23:00 +25°C° 0.1 mm 2 mps 747 mmHg 95%

    27 January, Friday

    Time Temperature Precipitation Wind Pressure Humidity
    00:00 +25°C° 0.1 mm 2 mps 747 mmHg 96%
    01:00 +25°C° 0.1 mm 2 mps 746 mmHg 97%
    02:00 +25°C° 0 mm 2 mps 746 mmHg 96%
    03:00 +25°C° 0 mm 2 mps 746 mmHg 96%
    04:00 +25°C° 0 mm 2 mps 745 mmHg 95%
    05:00 +26°C° 0 mm 2 mps 746 mmHg 93%
    06:00 +26°C° 0 mm 2 mps 746 mmHg 91%
    07:00 +27°C° 0 mm 3 mps 747 mmHg 88%
    08:00 +29°C° 0 mm 3 mps 747 mmHg 79%
    09:00 +30°C° 0 mm 3 mps 747 mmHg 69%
    10:00 +33°C° 0 mm 3 mps 747 mmHg 60%
    11:00 +33°C° 0 mm 3 mps 747 mmHg 56%
    12:00 +34°C° 0 mm 4 mps 746 mmHg 53%
    13:00 +35°C° 0 mm 4 mps 746 mmHg 49%
    14:00 +35°C° 0 mm 4 mps 745 mmHg 51%
    15:00 +34°C° 0 mm 4 mps 745 mmHg 53%
    16:00 +34°C° 0 mm 4 mps 744 mmHg 55%
    17:00 +31°C° 0 mm 3 mps 745 mmHg 63%
    18:00 +29°C° 0 mm 3 mps 745 mmHg 71%
    19:00 +27°C° 0 mm 3 mps 746 mmHg 79%
    20:00 +26°C° 0.1 mm 3 mps 746 mmHg 85%
    21:00 +25°C° 0.1 mm 2 mps 747 mmHg 90%
    22:00 +24°C° 0.1 mm 2 mps 747 mmHg 95%
    23:00 +24°C° 0.6 mm 2 mps 747 mmHg 94%

    28 January, Saturday

    Time Temperature Precipitation Wind Pressure Humidity
    00:00 +25°C° 0.6 mm 2 mps 747 mmHg 93%
    01:00 +25°C° 0.6 mm 2 mps 746 mmHg 92%
    02:00 +26°C° 1.1 mm 2 mps 746 mmHg 93%
    03:00 +26°C° 1.1 mm 2 mps 746 mmHg 93%
    04:00 +26°C° 1.1 mm 2 mps 746 mmHg 94%
    05:00 +26°C° 0.5 mm 2 mps 746 mmHg 92%
    06:00 +27°C° 0.5 mm 2 mps 747 mmHg 91%
    07:00 +27°C° 0.5 mm 3 mps 747 mmHg 90%
    08:00 +28°C° 0.4 mm 3 mps 747 mmHg 84%
    09:00 +29°C° 0.4 mm 3 mps 747 mmHg 79%
    10:00 +31°C° 0.4 mm 3 mps 747 mmHg 74%
    11:00 +33°C° 0.1 mm 3 mps 747 mmHg 68%
    12:00 +34°C° 0.1 mm 3 mps 746 mmHg 63%
    13:00 +35°C° 0.1 mm 3 mps 746 mmHg 57%
    14:00 +34°C° 0.1 mm 3 mps 746 mmHg 58%
    15:00 +34°C° 0.1 mm 4 mps 745 mmHg 59%
    16:00 +34°C° 0.1 mm 4 mps 745 mmHg 60%
    17:00 +31°C° 0 mm 3 mps 746 mmHg 69%
    18:00 +30°C° 0 mm 3 mps 746 mmHg 77%
    19:00 +28°C° 0 mm 3 mps 747 mmHg 85%
    20:00 +27°C° 0 mm 3 mps 747 mmHg 88%
    21:00 +27°C° 0 mm 3 mps 747 mmHg 90%
    22:00 +27°C° 0 mm 3 mps 748 mmHg 92%
    23:00 +27°C° 0 mm 3 mps 747 mmHg 92%
    Show more